TimeCST,TemperatureF,Dew PointF,Humidity,Sea Level PressureIn,VisibilityMPH,Wind Direction,Wind SpeedMPH,Gust SpeedMPH,PrecipitationIn,Events,Conditions,WindDirDegrees,DateUTC
12:15 AM,41.7,39.4,91,29.87,7.0,SSE,13.8,-,0.03,,Overcast,150,2013-03-09 06:15:00
12:35 AM,41.9,39.2,90,29.87,7.0,SSE,13.8,-,0.03,Rain,Light Rain,150,2013-03-09 06:35:00
12:55 AM,41.9,39.4,91,29.87,7.0,SSE,11.5,-,0.03,,Overcast,160,2013-03-09 06:55:00
1:15 AM,42.3,39.9,91,29.86,7.0,SSE,11.5,-,N/A,,Overcast,150,2013-03-09 07:15:00
1:35 AM,42.1,39.6,91,29.85,5.0,SE,12.7,-,N/A,,Overcast,140,2013-03-09 07:35:00
1:55 AM,42.3,40.1,92,29.84,4.0,SE,17.3,-,N/A,Rain,Light Rain,140,2013-03-09 07:55:00
2:15 AM,42.1,39.9,92,29.84,4.0,SSE,13.8,-,N/A,Rain,Light Rain,150,2013-03-09 08:15:00
2:35 AM,41.9,40.1,93,29.83,4.0,SE,12.7,-,N/A,Rain,Light Rain,140,2013-03-09 08:35:00
3:15 AM,41.9,40.1,93,29.80,3.0,SE,12.7,-,0.05,Rain,Light Rain,140,2013-03-09 09:15:00
3:35 AM,41.9,40.1,93,29.79,5.0,ESE,9.2,-,0.07,Rain,Rain,120,2013-03-09 09:35:00
3:55 AM,42.3,40.3,93,29.78,5.0,ESE,8.1,-,0.09,Rain,Light Rain,120,2013-03-09 09:55:00
4:15 AM,42.8,40.6,92,29.77,4.0,SE,9.2,-,0.03,Rain,Rain,130,2013-03-09 10:15:00
4:35 AM,42.4,40.6,93,29.77,5.0,SE,9.2,-,0.03,,Overcast,140,2013-03-09 10:35:00
4:55 AM,42.8,41.0,93,29.76,5.0,SE,10.4,-,0.03,Rain,Light Rain,130,2013-03-09 10:55:00
5:15 AM,42.8,41.0,93,29.75,7.0,SE,13.8,-,N/A,,Overcast,130,2013-03-09 11:15:00
5:35 AM,42.6,40.3,91,29.74,5.0,SE,11.5,-,N/A,,Overcast,130,2013-03-09 11:35:00
5:55 AM,42.4,40.3,92,29.74,7.0,SE,13.8,-,N/A,,Overcast,130,2013-03-09 11:55:00
6:15 AM,42.8,40.3,91,29.73,7.0,SE,17.3,-,N/A,,Overcast,130,2013-03-09 12:15:00
6:35 AM,42.8,40.1,90,29.72,7.0,SE,13.8,-,N/A,,Overcast,130,2013-03-09 12:35:00
6:55 AM,43.0,40.3,90,29.71,7.0,SE,12.7,-,N/A,,Overcast,130,2013-03-09 12:55:00
7:15 AM,42.8,40.3,91,29.71,5.0,ESE,9.2,-,N/A,,Overcast,120,2013-03-09 13:15:00
7:35 AM,43.2,40.6,91,29.69,5.0,ESE,11.5,-,N/A,,Overcast,120,2013-03-09 13:35:00
7:55 AM,43.7,41.0,90,29.68,5.0,ESE,11.5,-,N/A,,Overcast,120,2013-03-09 13:55:00
8:15 AM,44.2,41.2,89,29.68,7.0,ESE,10.4,-,N/A,,Overcast,120,2013-03-09 14:15:00
8:35 AM,44.6,41.2,88,29.68,7.0,ESE,15.0,20.7,N/A,,Overcast,120,2013-03-09 14:35:00
8:55 AM,44.2,41.0,88,29.68,7.0,ESE,12.7,-,N/A,,Overcast,110,2013-03-09 14:55:00
9:15 AM,44.6,41.0,87,29.67,7.0,East,11.5,-,N/A,,Overcast,100,2013-03-09 15:15:00
9:35 AM,44.6,41.4,88,29.66,5.0,East,9.2,-,N/A,,Overcast,90,2013-03-09 15:35:00
9:55 AM,44.8,41.4,88,29.66,5.0,ENE,4.6,-,N/A,,Overcast,70,2013-03-09 15:55:00
10:15 AM,45.5,42.1,88,29.65,7.0,NE,3.5,-,N/A,,Overcast,40,2013-03-09 16:15:00
10:35 AM,46.0,42.4,87,29.65,7.0,East,6.9,-,N/A,,Overcast,90,2013-03-09 16:35:00
10:55 AM,46.8,43.3,88,29.65,7.0,East,8.1,-,N/A,,Overcast,90,2013-03-09 16:55:00
11:15 AM,48.0,44.6,88,29.64,7.0,East,8.1,-,N/A,,Overcast,80,2013-03-09 17:15:00
11:35 AM,49.5,45.5,86,29.63,7.0,East,9.2,-,N/A,,Overcast,90,2013-03-09 17:35:00
11:55 AM,50.0,46.2,87,29.64,7.0,ESE,8.1,-,N/A,,Overcast,110,2013-03-09 17:55:00
12:15 PM,50.9,47.3,87,29.63,7.0,East,8.1,-,N/A,,Overcast,100,2013-03-09 18:15:00
12:35 PM,53.2,50.0,89,29.61,7.0,ESE,9.2,-,N/A,,Overcast,110,2013-03-09 18:35:00
12:55 PM,55.4,51.8,88,29.60,7.0,ESE,10.4,-,N/A,,Overcast,120,2013-03-09 18:55:00
1:15 PM,56.7,52.2,85,29.59,10.0,SSE,8.1,-,N/A,,Overcast,150,2013-03-09 19:15:00
1:35 PM,57.2,52.9,85,29.59,10.0,South,10.4,-,N/A,,Overcast,170,2013-03-09 19:35:00
1:55 PM,56.7,51.8,84,29.57,10.0,SSE,13.8,-,N/A,,Overcast,160,2013-03-09 19:55:00
2:15 PM,56.5,51.6,84,29.56,10.0,SSE,13.8,-,N/A,,Overcast,160,2013-03-09 20:15:00
2:35 PM,56.3,51.6,84,29.58,10.0,South,13.8,-,N/A,,Overcast,170,2013-03-09 20:35:00
2:55 PM,56.3,51.4,84,29.58,10.0,SSE,12.7,-,N/A,,Overcast,160,2013-03-09 20:55:00
3:15 PM,55.4,51.3,86,29.58,10.0,SE,12.7,-,N/A,Rain,Light Rain,140,2013-03-09 21:15:00
3:35 PM,55.0,51.3,87,29.57,10.0,SSE,11.5,-,N/A,,Light Drizzle,160,2013-03-09 21:35:00
3:55 PM,55.4,51.3,86,29.56,10.0,SSE,5.8,-,N/A,,Overcast,150,2013-03-09 21:55:00
4:15 PM,55.8,51.4,85,29.55,10.0,SSE,6.9,-,N/A,,Overcast,160,2013-03-09 22:15:00
4:35 PM,56.5,51.8,84,29.55,10.0,SSE,8.1,-,N/A,,Overcast,150,2013-03-09 22:35:00
4:55 PM,55.9,51.8,86,29.56,10.0,SE,4.6,-,N/A,,Overcast,140,2013-03-09 22:55:00
5:15 PM,55.6,52.0,88,29.56,10.0,SE,5.8,-,N/A,,Overcast,140,2013-03-09 23:15:00
5:35 PM,55.4,51.8,88,29.57,10.0,Calm,Calm,-,N/A,,Overcast,0,2013-03-09 23:35:00
5:55 PM,54.1,50.9,89,29.58,10.0,North,3.5,-,N/A,,Overcast,10,2013-03-09 23:55:00
6:15 PM,52.0,49.6,92,29.60,7.0,North,6.9,-,N/A,,Overcast,10,2013-03-10 00:15:00
6:35 PM,44.8,40.1,84,29.62,10.0,NNW,24.2,29.9,N/A,,Overcast,340,2013-03-10 00:35:00
6:55 PM,41.2,38.5,90,29.64,10.0,NNW,23.0,29.9,N/A,,Overcast,340,2013-03-10 00:55:00
7:15 PM,39.6,37.2,91,29.64,10.0,North,20.7,27.6,N/A,,Overcast,350,2013-03-10 01:15:00
7:35 PM,39.2,36.7,91,29.66,10.0,North,19.6,-,N/A,,Overcast,350,2013-03-10 01:35:00
7:55 PM,38.3,35.4,89,29.67,10.0,North,26.5,35.7,N/A,,Overcast,350,2013-03-10 01:55:00
8:15 PM,38.1,35.6,91,29.67,10.0,NNW,26.5,32.2,N/A,,Overcast,340,2013-03-10 02:15:00
8:35 PM,36.9,34.7,92,29.70,7.0,NNW,24.2,31.1,N/A,,Overcast,340,2013-03-10 02:35:00
8:55 PM,36.0,33.8,92,29.70,4.0,North,25.3,33.4,N/A,Rain,Light Rain,350,2013-03-10 02:55:00
9:15 PM,35.6,33.8,93,29.70,5.0,North,25.3,29.9,N/A,,Light Drizzle,350,2013-03-10 03:15:00
9:35 PM,35.2,33.1,92,29.73,1.8,NNW,24.2,33.4,0.03,Snow,Light Snow,340,2013-03-10 03:35:00
9:55 PM,34.9,32.9,92,29.72,7.0,North,21.9,29.9,0.06,Snow,Light Snow,350,2013-03-10 03:55:00
10:15 PM,34.9,32.9,92,29.72,7.0,North,19.6,28.8,N/A,Rain,Light Rain,350,2013-03-10 04:15:00
10:35 PM,35.1,32.9,92,29.72,5.0,North,23.0,32.2,0.01,Rain,Light Rain,350,2013-03-10 04:35:00
10:55 PM,35.1,32.9,92,29.72,3.0,North,23.0,29.9,0.03,Rain,Light Rain,360,2013-03-10 04:55:00
11:15 PM,34.9,32.9,92,29.72,5.0,North,25.3,32.2,0.01,Rain,Light Rain,350,2013-03-10 05:15:00
11:35 PM,34.7,32.4,91,29.72,7.0,North,23.0,28.8,0.02,Rain,Light Rain,360,2013-03-10 05:35:00
11:55 PM,34.3,32.2,92,29.72,10.0,North,21.9,28.8,0.02,,Overcast,360,2013-03-10 05:55:00